Maya-3
1 49273U 98067SS 22153.36903169 .00100690 00000-0 63139-3 0 9996
2 49273 51.6336 35.1464 0005027 206.1387 153.9360 15.75965129 37349
Maya-4
1 49274U 98067ST 22153.38811677 .00096840 00000-0 62130-3 0 9992
2 49274 51.6346 35.2709 0004807 201.2612 158.8188 15.75459598 37346
CUAVA-1
1 49275U 98067SU 22153.81186204 .00100252 00000-0 73626-3 0 9997
2 49275 51.6378 34.2590 0003559 204.2017 200.9437 15.72308455 37342
TeikyoSat 4
1 49396U 21102B 22153.42114621 .00000570 00000-0 49663-4 0 9995
2 49396 97.5265 211.9672 0015067 319.2136 40.7960 15.00591109 30795
Z-Sat
1 49399U 21102E 22153.78002782 .00001842 00000-0 14248-3 0 9994
2 49399 97.5374 212.9627 0022651 279.1028 80.7634 15.02520231 30883
KOSEN 1
1 49402U 21102H 22153.58618207 .00002048 00000-0 15373-3 0 9991
2 49402 97.5296 212.8853 0021254 271.1843 88.6947 15.03548434 30875
HO-113
1 50466U 21131B 22153.77381547 .00000086 00000-0 42599-4 0 9991
2 50466 98.5804 231.0342 0004771 176.7688 183.3531 14.38496065 22806
Tevel
1 50999U 22002R 22153.85410078 .00007313 00000-0 39739-3 0 9992
2 50999 97.4811 221.1605 0012964 109.5783 342.4284 15.14723322 21219
Grizu-263a
1 51025U 22002AT 22153.42913757 .00006767 00000-0 35059-3 0 9991
2 51025 97.4981 221.2422 0014544 116.7892 243.4831 15.16426856 21169
NO-116
1 51031U 22002AZ 22153.65381185 .00006070 00000-0 32205-3 0 9994
2 51031 97.4934 221.3187 0014716 114.8988 245.3776 15.15626006 21199
IRIS-A
1 51044U 22002BN 22153.45979899 .00003104 00000-0 17756-3 0 9990
2 51044 97.4824 220.6105 0010851 114.5020 245.7344 15.13351357 21145
DELFI-PQ
1 51074U 22002CU 22153.46191155 .00006924 00000-0 35163-3 0 9990
2 51074 97.5062 221.6531 0015167 143.3931 216.8342 15.17111115 21184
SO-115
1 51080U 22002DA 22153.16207727 .00004159 00000-0 21721-3 0 9990
2 51080 97.5075 221.3103 0014888 143.7762 216.4482 15.16366113 21137
SO-114
1 51081U 22002DB 22153.42661523 .00004162 00000-0 21731-3 0 9993
2 51081 97.5065 221.5559 0015252 142.8590 217.3701 15.16370128 21178
OreSat0
1 52017U 22026K 22153.49959725 .00003959 00000-0 21456-3 0 9997
2 52017 97.5018 153.5407 0026142 329.5819 30.3895 15.14889042 11927
Foresail-1
1 52766U 22057AL 22153.02366154 .00002631 00000-0 15184-3 0 9996
2 52766 97.5208 267.9629 0013428 201.0345 159.0335 15.13146402 1108
